Weather History for Bad Axe, MI

Change the Weather History Date:

Thursday, March 13, 2014

  Actual Average (KP58) Record (KP58)
Temperature  
Mean Temperature 14 °F -  
Max Temperature 23 °F 34 °F 64 °F (2007)
Min Temperature 4 °F 23 °F 9 °F (2014)
Degree Days  
Heating Degree Days 52    
Moisture  
Dew Point 3 °F    
Average Humidity 59    
Maximum Humidity 84    
Minimum Humidity 34    
Precipitation  
Precipitation 0.00 in - - ()
Sea Level Pressure  
Sea Level Pressure 30.01 in    
Wind  
Wind Speed 10 mph (West)    
Max Wind Speed 17 mph    
Max Gust Speed 22 mph    
Visibility 10 miles    
Events Snow    
Averages and records for this station are not official NWS values.
T = Trace of Precipitation, MM = Missing Value Source: NWS Daily Summary

Daily Weather History Graph

Daily Weather History Graph

Search for Another Location

Airport:

Trip Planner

Search our weather history database for the weather conditions in past years. The results will help you decide how hot, cold, wet, or windy it might be!

Date:

Astronomy

Mar. 13, 2014 Rise Set
Actual Time 7:47 AM EDT 7:35 PM EDT
Civil Twilight 7:19 AM EDT 8:04 PM EDT
Nautical Twilight 6:45 AM EDT 8:37 PM EDT
Astronomical Twilight 6:11 AM EDT 9:11 PM EDT
Moon 4:56 PM EDT (3/13) 5:58 AM EDT (3/13)
Length of Visible Light 12h 45m
Length of Day
11h 48m
Waxing Gibbous, 91% of the Moon is Illuminated
Mar 13
Waxing Gibbous
Mar 16
Full
Mar 23
Last Quarter
Mar 30
New
Apr 7
First Quarter

Hourly Weather History & Observations

Time (EDT) Temp. Windchill Dew Point Humidity Pressure Visibility Wind Dir Wind Speed Gust Speed Precip Events Conditions
12:17 AM 14.2 °F -1.2 °F 5.4 °F 68% 29.98 in 7.0 mi North 15.0 mph 21.9 mph N/A Snow Light Snow
12:37 AM 13.6 °F -2.4 °F 5.7 °F 71% 29.99 in 5.0 mi NNW 16.1 mph 20.7 mph N/A Snow Light Snow
12:57 AM 13.1 °F -1.4 °F 6.6 °F 75% 29.98 in 3.0 mi North 12.7 mph 19.6 mph N/A Snow Light Snow
1:17 AM 13.1 °F -0.7 °F 7.3 °F 78% 29.98 in 4.0 mi NNW 11.5 mph - N/A Snow Light Snow
1:37 AM 13.5 °F -0.9 °F 7.7 °F 78% 29.98 in 10.0 mi North 12.7 mph - N/A   Overcast
1:57 AM 13.6 °F 0.0 °F 2.8 °F 62% 29.98 in 10.0 mi North 11.5 mph - N/A   Overcast
2:17 AM 13.1 °F -0.7 °F 1.0 °F 59% 29.98 in 10.0 mi NNE 11.5 mph - N/A   Overcast
2:37 AM 12.7 °F 0.4 °F 1.4 °F 61% 29.99 in 10.0 mi NNE 9.2 mph - N/A   Overcast
2:57 AM 12.2 °F 0.7 °F 2.1 °F 64% 29.99 in 10.0 mi NNE 8.1 mph - N/A   Overcast
3:17 AM 12.0 °F -0.4 °F 1.4 °F 62% 29.99 in 10.0 mi North 9.2 mph - N/A   Overcast
3:37 AM 11.8 °F 0.3 °F 1.4 °F 63% 29.99 in 10.0 mi North 8.1 mph - N/A   Overcast
3:57 AM 11.7 °F 1.1 °F 1.9 °F 65% 29.99 in 10.0 mi NNE 6.9 mph - N/A   Overcast
4:18 AM 11.3 °F -2.2 °F 1.2 °F 64% 29.99 in 10.0 mi NNE 10.4 mph - N/A   Overcast
4:37 AM 10.9 °F -0.8 °F 1.2 °F 65% 29.99 in 10.0 mi NNE 8.1 mph - N/A   Overcast
4:57 AM 10.6 °F -1.3 °F 1.4 °F 67% 29.99 in 10.0 mi NNE 8.1 mph - N/A   Overcast
5:18 AM 10.2 °F -1.7 °F 1.2 °F 67% 30.00 in 10.0 mi North 8.1 mph - N/A   Overcast
5:37 AM 10.2 °F -0.6 °F 1.2 °F 67% 30.00 in 10.0 mi North 6.9 mph - N/A   Overcast
5:57 AM 9.9 °F 0.2 °F 1.0 °F 68% 30.00 in 10.0 mi North 5.8 mph - N/A   Overcast
6:18 AM 9.3 °F -1.7 °F 0.5 °F 67% 30.01 in 10.0 mi North 6.9 mph - N/A   Overcast
6:37 AM 8.6 °F 2.0 °F 0.9 °F 71% 30.02 in 10.0 mi North 3.5 mph - N/A   Overcast
6:57 AM 7.7 °F 1.0 °F 0.5 °F 72% 30.04 in 10.0 mi NW 3.5 mph - N/A   Overcast
7:18 AM 7.7 °F -0.9 °F 0.7 °F 73% 30.04 in 10.0 mi NW 4.6 mph - N/A   Mostly Cloudy
7:37 AM 7.7 °F 1.0 °F 1.0 °F 74% 30.05 in 10.0 mi NW 3.5 mph - N/A   Mostly Cloudy
7:57 AM 6.3 °F -0.7 °F 0.5 °F 77% 30.05 in 10.0 mi West 3.5 mph - N/A   Scattered Clouds
8:18 AM 4.3 °F -4.9 °F 0.3 °F 84% 30.07 in 10.0 mi WSW 4.6 mph - N/A   Clear
8:37 AM 4.8 °F -2.3 °F 1.0 °F 84% 30.07 in 4.0 mi West 3.5 mph - N/A Snow Light Snow
8:57 AM 6.1 °F -0.9 °F 2.1 °F 84% 30.08 in 10.0 mi West 3.5 mph - N/A   Clear
9:18 AM 7.9 °F 1.2 °F 3.0 °F 81% 30.08 in 10.0 mi West 3.5 mph - N/A   Clear
9:37 AM 9.0 °F 0.6 °F 3.2 °F 77% 30.09 in 10.0 mi West 4.6 mph - N/A   Clear
9:57 AM 10.9 °F 2.9 °F 4.3 °F 75% 30.09 in 10.0 mi WNW 4.6 mph - N/A   Scattered Clouds
10:18 AM 11.5 °F 2.1 °F 4.1 °F 72% 30.10 in 10.0 mi West 5.8 mph - N/A   Scattered Clouds
10:37 AM 12.2 °F 4.3 °F 3.4 °F 68% 30.10 in 10.0 mi West 4.6 mph - N/A   Clear
10:58 AM 13.1 °F 1.8 °F 2.8 °F 64% 30.10 in 10.0 mi West 8.1 mph - N/A   Clear
11:17 AM 13.1 °F 2.8 °F 2.3 °F 62% 30.09 in 10.0 mi West 6.9 mph - N/A   Clear
11:37 AM 13.8 °F 2.7 °F 2.3 °F 60% 30.09 in 10.0 mi West 8.1 mph - N/A   Clear
11:58 AM 13.8 °F 4.9 °F 2.3 °F 60% 30.08 in 10.0 mi WSW 5.8 mph - N/A   Clear
12:17 PM 14.5 °F 4.6 °F 2.1 °F 58% 30.08 in 10.0 mi WSW 6.9 mph - N/A   Clear
12:37 PM 14.9 °F 2.3 °F 1.8 °F 56% 30.07 in 10.0 mi WSW 10.4 mph - N/A   Clear
12:58 PM 15.6 °F 3.2 °F 1.9 °F 55% 30.07 in 10.0 mi West 10.4 mph 16.1 mph N/A   Clear
1:17 PM 15.8 °F 2.7 °F 1.4 °F 53% 30.07 in 10.0 mi WSW 11.5 mph - N/A   Clear
1:37 PM 16.7 °F 4.5 °F 1.6 °F 52% 30.07 in 10.0 mi WSW 10.4 mph - N/A   Clear
1:58 PM 16.7 °F 4.5 °F 0.9 °F 50% 30.07 in 10.0 mi WSW 10.4 mph - N/A   Clear
2:17 PM 16.9 °F 3.4 °F 1.4 °F 51% 30.07 in 10.0 mi West 12.7 mph - N/A   Clear
2:37 PM 17.2 °F 6.8 °F 2.3 °F 52% 30.06 in 10.0 mi WSW 8.1 mph - N/A   Mostly Cloudy
2:58 PM 18.1 °F 7.1 °F 3.7 °F 53% 30.04 in 10.0 mi SW 9.2 mph - N/A   Overcast
3:17 PM 18.5 °F 7.5 °F 2.3 °F 49% 30.01 in 10.0 mi SSW 9.2 mph - N/A   Scattered Clouds
3:38 PM 19.9 °F 7.3 °F 1.0 °F 44% 30.01 in 10.0 mi SSW 12.7 mph 16.1 mph N/A   Clear
3:57 PM 21.2 °F 9.5 °F -2.0 °F 36% 30.00 in 10.0 mi SW 11.5 mph 18.4 mph N/A   Scattered Clouds
4:17 PM 21.7 °F 9.6 °F -2.7 °F 34% 29.99 in 10.0 mi SW 12.7 mph 19.6 mph N/A   Scattered Clouds
4:38 PM 22.5 °F 11.1 °F -1.7 °F 35% 29.98 in 10.0 mi SW 11.5 mph - N/A   Scattered Clouds
4:57 PM 22.8 °F 11.5 °F -0.6 °F 36% 29.97 in 10.0 mi SW 11.5 mph - N/A   Scattered Clouds
5:17 PM 23.7 °F 14.0 °F 0.7 °F 37% 29.97 in 10.0 mi SW 9.2 mph - N/A   Mostly Cloudy
5:38 PM 23.0 °F 13.1 °F 2.1 °F 41% 29.97 in 10.0 mi SW 9.2 mph - N/A   Overcast
5:57 PM 23.0 °F 11.7 °F 1.8 °F 40% 29.96 in 10.0 mi SSW 11.5 mph - N/A   Mostly Cloudy
6:17 PM 23.2 °F 11.4 °F 1.9 °F 40% 29.96 in 10.0 mi SSW 12.7 mph - N/A   Overcast
6:38 PM 23.5 °F 12.4 °F 0.7 °F 37% 29.96 in 10.0 mi SW 11.5 mph - N/A   Overcast
6:57 PM 23.5 °F 13.7 °F 3.0 °F 41% 29.97 in 10.0 mi SW 9.2 mph - N/A   Overcast
7:17 PM 23.7 °F 14.7 °F 3.4 °F 42% 29.97 in 10.0 mi SSW 8.1 mph - N/A   Overcast
7:38 PM 23.5 °F 11.3 °F 3.6 °F 42% 29.96 in 10.0 mi SW 13.8 mph 17.3 mph N/A   Overcast
7:57 PM 23.4 °F 12.8 °F 4.6 °F 45% 29.95 in 10.0 mi SSW 10.4 mph - N/A   Overcast
8:18 PM 23.5 °F 12.4 °F 4.6 °F 44% 29.95 in 10.0 mi SSW 11.5 mph - N/A   Overcast
8:38 PM 23.7 °F 13.3 °F 5.7 °F 46% 29.94 in 10.0 mi SSW 10.4 mph - N/A   Overcast
8:57 PM 23.7 °F 13.3 °F 6.4 °F 48% 29.94 in 10.0 mi SSW 10.4 mph - N/A   Overcast
9:18 PM 23.9 °F 12.3 °F 8.6 °F 52% 29.94 in 10.0 mi SSW 12.7 mph - N/A   Overcast
9:38 PM 23.9 °F 14.2 °F 10.8 °F 57% 29.93 in 10.0 mi SSW 9.2 mph - N/A   Overcast
9:57 PM 23.7 °F 12.1 °F 12.9 °F 63% 29.93 in 10.0 mi SSW 12.7 mph - N/A   Overcast
10:18 PM 23.5 °F 9.9 °F 13.3 °F 65% 29.94 in 10.0 mi SSW 17.3 mph - N/A   Overcast
10:38 PM 23.2 °F 11.4 °F 13.8 °F 67% 29.93 in 10.0 mi SSW 12.7 mph - N/A   Overcast
10:57 PM 23.7 °F 11.5 °F 12.2 °F 61% 29.92 in 10.0 mi SSW 13.8 mph - N/A   Overcast
11:18 PM 23.9 °F 12.9 °F 11.8 °F 60% 29.92 in 10.0 mi SSW 11.5 mph 20.7 mph N/A   Overcast
11:38 PM 23.4 °F 12.8 °F 12.2 °F 62% 29.92 in 10.0 mi SSW 10.4 mph - N/A   Overcast
11:57 PM 23.2 °F 11.4 °F 12.2 °F 63% 29.91 in 10.0 mi SSW 12.7 mph - N/A   Overcast